Retour au catalogue

STARLINK-6097

ActifCommunicationsVLEO
NORAD 57105·PAYLOAD·🇺🇸 United States

Lancé Jun 23, 2023 depuis Cape Canaveral Space Force Station

Loading…

Prochains Passages (prochaines 24 heures)

TLE

FraisSource: CelesTrak SupGP

Époque: Sep 15, 2026, 02:06 UTC

1 57105C 23090E   26258.08798611  .00017250  00000+0  62477-3 0  2586
2 57105  43.0012 292.1358 0000932 281.4766 166.0158 15.27570756    11

Suivez STARLINK-6097 en temps réel avec AllMySat

Download on the App Store